Location: Dal�� Lhota
(48.7500°N, 14.0167°E)
Time: 02:20:03
(UTC+00:00)

Vanguard 3 - Pass Details

Date: 04 August 2021
Orbit: 510 x 3260 km, 33.3° (Epoch: 16 September)

Event Time Altitude Azimuth Distance (km) Brightness Sun altitude
Rises 16:31:46 0° 234° (SW) 5,211 12.1 19.0°
Reaches altitude 10° 16:34:57 10° 227° (SW) 4,548 11.7 18.5°
Maximum altitude 16:47:29 43° 163° (SSE) 3,578 10.4 16.4°
Drops below altitude 10° 17:04:48 10° 102° (ESE) 6,195 11.1 13.6°
Sets 17:10:03 0° 96° (E) 7,208 11.3 12.7°
